Wind_Speed
57 54 58 71 82 90 90 86 84 82 82 80 78 78 76 74 72 75 76 76 75 75 78 80 82 84 86 88 90 93 95 99 103 106 108 108 107 107 110 110 106 100 96 95
58 54 51 51 60 73 84 83 83 84 81 80 80 80 79 78 77 80 81 80 81 80 81 82 82 82 81 82 84 86 86 88 93 96 98 100 100 100 100 103 104 106 105 100
60 54 47 46 52 66 76 83 84 82 81 81 81 80 80 82 82 83 86 86 85 86 86 86 86 86 85 87 87 87 89 91 91 92 95 97 100 100 100 100 101 101 103 105
57 51 45 40 42 48 57 65 72 76 77 77 79 77 80 81 82 83 83 83 84 86 85 87 88 89 90 90 89 91 91 93 92 93 92 95 99 102 103 103 103 101 101 104
54 50 45 38 36 35 38 42 44 47 49 53 56 55 69 70 71 73 75 79 80 80 80 80 82 83 83 82 83 81 80 81 82 86 87 88 89 93 97 100 100 99 101 103
53 48 45 40 36 34 34 34 33 34 35 38 43 47 55 57 59 62 64 66 66 66 66 66 67 68 71 72 72 73 73 75 76 76 76 77 80 82 85 89 93 95 96 100
50 47 43 39 37 36 34 34 35 37 40 42 47 50 55 59 60 60 60 60 59 59 60 62 63 63 64 66 66 65 65 65 63 65 67 71 73 73 77 79 81 84 88 90
45 42 39 39 38 38 37 36 36 39 42 47 53 56 56 57 57 56 59 62 63 62 61 61 59 56 55 55 56 53 51 49 49 52 56 61 65 64 65 68 71 73 75 78
30 34 35 36 36 34 35 37 39 44 47 50 52 52 51 52 56 56 53 52 50 50 48 46 45 44 40 40 41 39 40 42 43 44 46 49 53 55 55 57 59 62 67 70
8 7 12 17 21 25 28 31 34 37 39 40 40 39 38 38 36 35 33 32 32 32 32 31 29 31 33 34 34 35 37 42 41 40 39 41 45 47 46 47 48 52 57 61
31 22 16 8 2 3 9 14 18 17 15 14 15 14 18 20 19 20 22 25 26 26 26 29 33 35 35 36 39 40 42 40 41 37 38 34 34 39 41 42 43 43 47 51
51 47 42 37 34 30 26 22 19 17 14 13 9 9 17 13 15 20 20 21 23 29 34 34 35 36 39 41 43 44 41 40 39 42 43 38 36 31 34 35 38 40 41 42
63 59 51 44 38 36 33 29 24 21 18 16 14 13 14 15 14 15 17 21 22 26 24 30 33 35 35 31 34 37 39 40 38 38 42 42 39 37 32 30 31 34 36 37
58 54 52 52 51 49 43 39 32 28 27 24 22 21 21 21 20 21 22 25 26 27 27 27 29 30 32 34 34 36 37 42 45 43 42 42 43 40 34 32 32 32 33 35
53 54 49 44 44 44 42 41 41 39 32 27 23 22 20 21 17 21 20 23 25 28 32 34 32 31 32 32 34 37 39 37 37 41 44 43 43 41 38 36 35 31 29 29
50 49 50 46 45 43 43 45 41 39 37 35 33 30 24 21 19 21 18 19 23 27 28 28 30 33 32 32 32 34 37 38 38 38 41 43 43 44 42 39 34 35 34 29
44 46 46 46 43 41 41 39 37 36 36 34 32 31 32 31 30 29 27 27 26 27 32 35 34 31 31 33 33 34 35 36 37 38 38 39 40 43 44 43 43 39 36 35
41 38 38 38 38 40 42 42 42 40 39 40 38 34 31 30 32 35 34 34 30 26 28 30 36 40 37 32 32 32 34 36 37 39 39 39 42 43 43 45 45 44 42 39
37 36 37 40 36 37 36 35 38 44 41 41 42 43 40 36 32 31 35 38 37 36 31 29 33 37 39 39 38 34 34 34 35 36 37 39 37 39 43 45 45 47 47 45
32 33 35 41 42 40 48 42 42 43 45 45 46 47 45 41 40 37 35 37 37 38 39 35 35 34 37 41 40 38 39 38 37 37 37 37 39 41 41 41 45 47 47 49
37 34 35 42 40 39 50 44 44 44 43 45 46 48 50 48 47 44 41 39 39 41 39 39 38 37 38 37 41 42 42 42 42 39 40 42 42 41 41 44 45 46 50 54
44 40 40 42 48 44 49 44 45 45 46 43 45 46 48 47 49 49 48 45 44 43 43 43 40 39 37 37 36 37 40 42 44 44 45 45 44 45 47 47 48 49 52 53
50 49 49 50 49 54 47 49 44 41 44 43 44 46 50 53 52 50 50 50 49 48 47 47 47 44 42 40 39 37 38 40 44 46 49 49 49 48 49 51 53 55 57 57
66 61 55 56 61 55 51 51 52 44 43 45 42 49 52 54 55 55 51 52 53 53 53 52 53 51 48 46 45 43 41 41 42 45 50 53 55 55 56 56 57 59 59 60
67 60 56 58 61 56 56 54 54 51 45 45 46 50 53 55 57 57 57 55 54 57 56 56 55 56 55 51 50 47 43 43 45 47 50 55 59 61 61 63 63 64 64 65
74 72 64 62 61 56 61 57 54 53 55 53 51 53 56 58 58 58 58 58 60 58 59 57 58 58 58 58 56 53 47 47 49 49 50 56 62 66 65 64 63 67 69 68
Wind_Direction
220 221 226 229 233 235 233 236 238 241 243 247 250 252 253 256 258 259 260 261 261 261 262 262 261 261 261 261 262 263 265 266 266 266 266 266 267 267 267 267 265 263 259 258
218 222 229 232 232 232 231 233 236 241 244 245 248 252 256 257 257 260 262 263 263 264 264 264 263 264 265 266 264 263 263 264 265 264 264 265 265 264 264 264 264 264 261 258
214 217 223 228 231 232 232 234 237 241 245 249 251 252 255 256 257 259 260 261 263 265 266 267 267 267 270 269 266 266 266 266 265 265 265 266 267 266 265 264 263 263 263 262
213 218 223 232 236 236 237 238 242 245 249 251 253 255 258 260 262 263 265 267 268 268 269 270 270 269 268 268 268 270 272 274 273 271 270 267 264 263 263 262 262 260 260 260
209 216 222 231 230 234 237 239 242 244 247 251 254 257 261 261 265 267 267 268 269 270 270 270 271 273 274 276 275 273 273 273 272 271 270 268 266 264 263 263 263 262 261 260
207 214 220 227 231 234 238 240 243 244 246 249 250 252 257 260 262 266 267 267 269 271 273 275 275 274 274 275 276 275 273 273 273 273 272 270 268 265 263 262 262 261 260 259
211 216 222 228 232 236 242 244 245 248 251 253 257 257 256 261 265 270 273 275 275 274 274 274 273 274 275 275 275 275 275 276 277 275 274 273 272 269 267 265 262 261 260 259
219 221 226 232 236 239 245 248 253 255 254 256 259 265 267 268 270 272 274 275 275 274 273 272 273 274 271 271 271 272 271 272 274 275 277 277 276 273 270 266 262 261 260 258
227 231 233 237 242 246 246 250 253 255 259 264 268 270 271 272 273 274 273 272 272 271 274 271 272 271 268 271 272 278 280 281 286 289 287 284 282 277 271 269 266 260 258 258
114 185 222 236 245 251 258 262 266 267 270 270 271 271 272 274 273 272 272 270 268 269 270 270 271 276 276 277 279 286 288 293 296 299 299 299 290 283 277 269 267 265 262 261
76 80 83 87 102 285 274 272 265 269 271 275 279 291 284 274 273 284 286 279 278 279 277 280 283 284 287 289 293 292 296 299 299 304 310 311 309 288 278 274 272 265 262 262
67 68 69 70 72 71 70 68 64 53 48 39 23 6 21 360 331 330 330 338 329 313 300 291 295 294 290 286 288 294 300 305 304 309 317 320 318 314 288 279 276 272 269 266
60 60 60 60 61 62 63 62 61 57 54 48 40 26 17 3 350 328 325 323 321 310 305 305 300 303 299 304 298 299 296 302 308 307 316 319 324 328 321 295 283 277 269 265
51 52 53 53 54 54 52 48 48 46 41 36 31 25 20 13 6 359 345 335 328 321 316 306 303 302 299 299 300 299 301 297 301 301 308 311 314 318 327 325 298 282 279 270
42 42 46 49 49 47 46 43 42 41 39 36 35 31 22 13 9 356 344 337 332 326 320 317 312 309 303 299 298 298 296 296 296 296 296 301 304 307 311 318 321 319 293 280
27 31 32 35 36 36 39 39 35 32 30 27 27 27 17 6 356 353 342 338 331 327 322 319 317 314 311 306 303 299 296 298 302 305 304 295 294 298 303 305 308 314 317 308
19 18 18 21 21 24 25 28 29 25 22 19 14 9 9 7 1 355 346 341 336 331 327 324 321 317 313 310 308 307 305 304 302 298 297 298 301 298 293 297 299 304 305 306
5 9 10 10 11 10 9 9 10 13 14 13 10 4 359 358 360 354 349 347 342 336 331 328 324 321 319 315 312 309 306 304 303 301 300 296 296 298 300 296 291 290 295 296
353 354 353 355 356 358 358 359 358 357 2 360 1 1 357 350 349 348 347 341 336 335 331 325 326 325 319 318 317 314 314 311 306 300 298 294 293 289 291 294 294 287 284 287
340 340 340 342 344 343 346 346 346 349 349 349 350 350 351 350 345 342 340 340 336 334 329 326 329 325 326 323 319 316 314 315 315 311 305 302 299 294 290 287 288 288 284 282
323 326 331 330 332 330 335 335 337 338 339 341 340 343 344 343 341 338 339 335 334 332 330 329 325 324 327 324 323 320 318 314 312 311 309 306 301 297 295 292 287 282 281 282
315 317 322 323 322 320 326 326 326 329 330 332 332 338 338 338 337 336 335 335 333 331 328 327 326 323 318 319 317 317 316 315 312 312 306 305 305 303 297 293 289 286 282 278
305 308 313 316 313 318 318 318 317 318 317 322 330 333 332 332 334 332 333 331 329 330 328 327 324 322 321 317 314 312 307 309 309 308 307 306 300 296 296 295 293 288 284 281
299 302 305 308 306 313 313 315 315 313 313 317 318 324 325 327 328 327 329 329 327 325 325 325 326 321 320 318 316 313 310 306 306 306 304 302 302 300 298 295 292 291 291 288
296 297 301 303 302 306 308 309 312 308 302 312 310 312 317 320 323 322 323 324 325 326 322 324 325 323 321 316 316 314 312 308 306 303 303 301 300 299 298 297 295 294 294 290
291 293 296 299 301 298 297 303 307 304 302 301 301 306 310 316 318 318 319 319 319 323 323 320 319 321 320 318 315 313 315 313 309 308 305 304 302 301 300 300 296 294 292 290
Height
10563 10574 10584 10593 10602 10611 10623 10633 10641 10645 10650 10655 10660 10662 10667 10672 10678 10673 10672 10674 10677 10678 10679 10680 10681 10682 10684 10684 10683 10683 10683 10681 10681 10681 10683 10685 10686 10685 10684 10686 10690 10694 10700 10701
10559 10569 10578 10586 10593 10601 10612 10621 10627 10632 10638 10643 10649 10652 10657 10661 10664 10661 10660 10661 10661 10661 10662 10661 10662 10663 10665 10666 10666 10665 10665 10663 10659 10657 10655 10655 10659 10660 10660 10659 10662 10664 10668 10676
10550 10561 10570 10578 10585 10591 10600 10609 10618 10624 10630 10636 10640 10645 10645 10643 10647 10646 10643 10644 10645 10645 10645 10644 10644 10644 10646 10644 10642 10642 10641 10638 10640 10641 10639 10637 10634 10635 10635 10635 10637 10640 10641 10645
10548 10560 10570 10577 10582 10588 10595 10605 10612 10618 10624 10627 10630 10636 10630 10629 10628 10630 10631 10633 10631 10628 10629 10627 10624 10623 10622 10621 10622 10621 10621 10618 10617 10615 10615 10611 10608 10607 10606 10606 10607 10614 10617 10617
10546 10556 10566 10573 10579 10586 10593 10599 10605 10610 10613 10616 10619 10625 10611 10614 10617 10617 10616 10615 10612 10611 10608 10607 10606 10606 10604 10602 10600 10599 10598 10595 10593 10588 10587 10586 10586 10582 10579 10579 10581 10587 10589 10589
10542 10553 10562 10570 10577 10584 10590 10595 10599 10602 10604 10607 10609 10610 10600 10605 10605 10603 10600 10597 10596 10595 10594 10592 10589 10588 10585 10583 10582 10579 10577 10574 10572 10569 10566 10562 10558 10555 10552 10552 10554 10557 10560 10559
10542 10551 10561 10568 10575 10580 10584 10588 10592 10595 10596 10598 10598 10597 10597 10592 10591 10590 10586 10584 10582 10581 10579 10576 10574 10572 10570 10567 10564 10562 10559 10556 10553 10548 10544 10539 10535 10533 10529 10528 10529 10531 10531 10532
10546 10554 10561 10567 10572 10577 10581 10584 10587 10586 10586 10586 10585 10585 10584 10583 10581 10580 10576 10573 10570 10568 10565 10562 10560 10560 10556 10552 10550 10548 10545 10543 10537 10534 10529 10523 10516 10512 10509 10506 10506 10507 10507 10509
10548 10554 10560 10565 10569 10573 10575 10577 10577 10576 10577 10576 10574 10573 10571 10571 10568 10565 10563 10561 10557 10554 10552 10550 10548 10546 10544 10542 10540 10538 10533 10530 10527 10522 10517 10510 10502 10496 10493 10489 10487 10487 10487 10486
10550 10555 10559 10562 10565 10568 10569 10570 10570 10569 10566 10565 10563 10561 10560 10558 10557 10555 10553 10551 10548 10546 10544 10542 10539 10537 10535 10533 10531 10528 10523 10520 10515 10511 10505 10498 10491 10484 10479 10476 10473 10471 10470 10469
10556 10558 10561 10562 10563 10564 10564 10564 10563 10561 10560 10558 10557 10557 10555 10553 10552 10551 10549 10547 10545 10542 10539 10537 10535 10531 10527 10523 10520 10517 10514 10509 10504 10499 10494 10486 10481 10475 10467 10462 10459 10457 10456 10454
10568 10568 10568 10568 10567 10566 10565 10564 10563 10562 10561 10559 10558 10558 10554 10553 10552 10550 10547 10544 10541 10538 10535 10532 10527 10523 10519 10516 10512 10509 10505 10500 10495 10489 10482 10476 10469 10463 10459 10453 10450 10447 10444 10443
10580 10578 10576 10575 10573 10571 10569 10567 10565 10564 10562 10561 10558 10556 10553 10551 10549 10546 10544 10541 10537 10534 10530 10526 10522 10517 10513 10508 10505 10501 10497 10491 10486 10482 10476 10469 10462 10455 10449 10445 10441 10438 10434 10431
10590 10587 10585 10582 10580 10577 10574 10571 10569 10566 10563 10562 10559 10555 10552 10549 10547 10544 10541 10537 10532 10528 10525 10520 10515 10510 10505 10501 10495 10491 10488 10483 10477 10472 10467 10462 10455 10450 10444 10438 10434 10430 10427 10424
10598 10596 10594 10591 10587 10584 10582 10579 10576 10573 10569 10564 10561 10557 10554 10550 10547 10543 10539 10534 10528 10523 10517 10512 10507 10503 10498 10492 10488 10483 10479 10475 10470 10465 10459 10453 10448 10442 10437 10432 10427 10423 10419 10416
10602 10599 10596 10593 10590 10587 10584 10580 10576 10573 10569 10565 10562 10559 10555 10551 10546 10541 10536 10531 10525 10518 10512 10505 10499 10493 10489 10485 10480 10474 10469 10464 10459 10454 10450 10445 10440 10435 10430 10426 10422 10418 10413 10410
10605 10601 10598 10595 10592 10589 10585 10581 10577 10573 10568 10564 10560 10557 10552 10547 10543 10536 10529 10524 10519 10512 10506 10498 10492 10486 10480 10475 10470 10465 10460 10455 10450 10445 10440 10436 10432 10427 10422 10418 10414 10411 10408 10405
10605 10603 10600 10597 10593 10589 10585 10581 10577 10574 10568 10563 10558 10552 10547 10542 10537 10531 10525 10518 10514 10507 10501 10493 10485 10478 10472 10467 10462 10456 10451 10445 10440 10435 10431 10427 10423 10419 10415 10411 10407 10403 10400 10397
10606 10602 10596 10594 10590 10588 10585 10580 10575 10570 10566 10561 10555 10550 10544 10536 10531 10527 10520 10513 10506 10499 10494 10487 10480 10472 10464 10458 10452 10447 10440 10435 10430 10426 10421 10416 10412 10408 10405 10402 10398 10395 10392 10388
10603 10600 10595 10590 10585 10581 10578 10573 10568 10564 10558 10554 10549 10544 10538 10532 10525 10519 10513 10507 10499 10492 10485 10479 10472 10465 10458 10450 10443 10435 10430 10425 10420 10415 10410 10405 10401 10397 10392 10388 10385 10384 10381 10379
10595 10594 10590 10584 10581 10576 10571 10567 10562 10558 10554 10547 10542 10536 10531 10526 10520 10513 10507 10500 10492 10485 10478 10471 10464 10457 10450 10443 10435 10428 10421 10415 10410 10404 10399 10394 10389 10384 10380 10377 10373 10369 10366 10364
10588 10586 10584 10579 10570 10567 10564 10559 10554 10549 10543 10540 10533 10528 10522 10517 10511 10506 10499 10492 10484 10478 10471 10464 10457 10450 10443 10436 10429 10422 10415 10407 10400 10393 10388 10382 10376 10371 10368 10363 10358 10354 10350 10346
10577 10577 10576 10572 10564 10561 10555 10550 10547 10541 10534 10530 10524 10518 10512 10505 10500 10494 10489 10484 10477 10469 10462 10456 10448 10440 10433 10427 10420 10413 10406 10399 10391 10384 10377 10369 10363 10358 10353 10348 10343 10338 10333 10327
10563 10565 10563 10559 10547 10551 10544 10539 10535 10531 10525 10519 10513 10508 10503 10496 10489 10482 10477 10471 10465 10459 10452 10444 10437 10430 10423 10415 10409 10402 10395 10388 10381 10373 10366 10358 10349 10342 10335 10329 10324 10319 10314 10309
10544 10548 10550 10544 10538 10537 10530 10526 10522 10519 10515 10510 10503 10498 10493 10486 10479 10472 10465 10459 10454 10447 10439 10432 10425 10417 10411 10404 10397 10390 10384 10376 10369 10361 10353 10344 10335 10327 10319 10312 10305 10298 10292 10287
10525 10529 10532 10529 10524 10525 10516 10513 10510 10506 10502 10498 10492 10486 10481 10475 10467 10461 10454 10448 10441 10435 10428 10420 10413 10406 10398 10391 10384 10377 10370 10363 10355 10348 10339 10329 10320 10310 10302 10294 10285 10277 10269 10262